Weather History for Jamestown, NY

Change the Weather History Date:

Thursday, March 28, 2013

  Actual Average Record
Temperature  
Mean Temperature 30 °F -  
Max Temperature 33 °F 51 °F 80 °F (1989)
Min Temperature 28 °F 25 °F 2 °F (1982)
Degree Days  
Heating Degree Days 34    
Moisture  
Dew Point 28 °F    
Average Humidity 89    
Maximum Humidity 100    
Minimum Humidity 80    
Precipitation  
Precipitation 0.00 in - - ()
Sea Level Pressure  
Sea Level Pressure 30.13 in    
Wind  
Wind Speed 9 mph (WNW)    
Max Wind Speed 16 mph    
Max Gust Speed 17 mph    
Visibility 7 miles    
Events      
Averages and records for this station are not official NWS values.
T = Trace of Precipitation, MM = Missing Value Source: NWS Daily Summary

Daily Weather History Graph

Daily Weather History Graph

Search for Another Location

Airport:

Trip Planner

Search our weather history database for the weather conditions in past years. The results will help you decide how hot, cold, wet, or windy it might be!

Date:

Astronomy

Mar. 28, 2013 Rise Set
Actual Time 7:06 AM EDT 7:38 PM EDT
Civil Twilight 6:38 AM EDT 8:06 PM EDT
Nautical Twilight 6:04 AM EDT 8:39 PM EDT
Astronomical Twilight 5:30 AM EDT 9:14 PM EDT
Moon 9:31 PM EDT (3/28) 7:30 AM EDT (3/28)
Length of Visible Light 13h 28m
Length of Day
12h 32m
Full, 98% of the Moon is Illuminated
Mar 28
Full
Apr 3
Last Quarter
Apr 10
New
Apr 18
First Quarter
Apr 25
Full

Hourly Weather History & Observations

Time (EDT) Temp. Windchill Dew Point Humidity Pressure Visibility Wind Dir Wind Speed Gust Speed Precip Events Conditions
12:15 AM 30.2 °F 21.3 °F 28.4 °F 93% 30.04 in 5.0 mi West 10.4 mph - N/A   Overcast
12:35 AM 30.2 °F 20.8 °F 28.4 °F 93% 30.04 in 1.5 mi WNW 11.5 mph 17.3 mph N/A   Overcast
12:55 AM 30.2 °F 18.9 °F 28.4 °F 93% 30.04 in 2.0 mi WNW 16.1 mph - N/A   Overcast
1:15 AM 30.2 °F 21.3 °F 28.4 °F 93% 30.03 in 2.0 mi NW 10.4 mph - N/A   Overcast
1:35 AM 30.2 °F 21.9 °F 26.6 °F 86% 30.03 in 2.0 mi NW 9.2 mph - N/A   Overcast
1:55 AM 30.2 °F 21.9 °F 26.6 °F 86% 30.04 in 2.5 mi NW 9.2 mph - N/A   Overcast
2:15 AM 28.4 °F 19.7 °F 26.6 °F 93% 30.04 in 2.0 mi NNW 9.2 mph - N/A   Overcast
2:35 AM 28.4 °F 19.1 °F 26.6 °F 93% 30.04 in 3.0 mi NW 10.4 mph - N/A   Overcast
2:55 AM 28.4 °F 20.4 °F 26.6 °F 93% 30.04 in 4.0 mi NNW 8.1 mph - N/A   Overcast
3:15 AM 28.4 °F 20.4 °F 26.6 °F 93% 30.04 in 6.0 mi NNW 8.1 mph - N/A   Overcast
3:35 AM 28.4 °F 20.4 °F 26.6 °F 93% 30.04 in 10.0 mi NNW 8.1 mph - N/A   Overcast
3:55 AM 28.4 °F 18.0 °F 26.6 °F 93% 30.04 in 10.0 mi NW 12.7 mph - N/A   Overcast
4:15 AM 28.4 °F 19.7 °F 26.6 °F 93% 30.05 in 5.0 mi NW 9.2 mph - N/A   Overcast
4:35 AM 28.4 °F 20.4 °F 26.6 °F 93% 30.05 in 5.0 mi NW 8.1 mph - N/A   Overcast
4:55 AM 28.4 °F 20.4 °F 26.6 °F 93% 30.05 in 3.0 mi NW 8.1 mph - N/A   Overcast
5:15 AM 28.4 °F 20.4 °F 26.6 °F 93% 30.05 in 4.0 mi NNW 8.1 mph - N/A   Overcast
5:35 AM 28.4 °F 20.4 °F 26.6 °F 93% 30.06 in 4.0 mi NNW 8.1 mph - N/A   Overcast
5:55 AM 28.4 °F 20.4 °F 26.6 °F 93% 30.06 in 5.0 mi NW 8.1 mph - N/A   Overcast
6:15 AM 28.4 °F 20.4 °F 26.6 °F 93% 30.06 in 5.0 mi NW 8.1 mph - N/A   Overcast
6:35 AM 28.4 °F 19.7 °F 26.6 °F 93% 30.07 in 10.0 mi NW 9.2 mph - N/A   Overcast
6:55 AM 28.4 °F 19.7 °F 26.6 °F 93% 30.07 in 9.0 mi NW 9.2 mph - N/A   Overcast
7:15 AM 28.4 °F 19.7 °F 26.6 °F 93% 30.08 in 9.0 mi NNW 9.2 mph - N/A   Overcast
7:35 AM 28.4 °F 20.4 °F 26.6 °F 93% 30.09 in 7.0 mi NW 8.1 mph - N/A   Overcast
7:55 AM 28.4 °F 20.4 °F 26.6 °F 93% 30.09 in 4.0 mi NW 8.1 mph - N/A   Overcast
8:15 AM 28.4 °F 20.4 °F 26.6 °F 93% 30.10 in 2.5 mi NW 8.1 mph - N/A   Overcast
8:35 AM 28.4 °F 20.4 °F 28.4 °F 100% 30.11 in 0.2 mi WNW 8.1 mph - N/A   Overcast
8:55 AM 28.4 °F 19.7 °F 26.6 °F 93% 30.11 in 0.2 mi NW 9.2 mph - N/A   Overcast
9:15 AM 28.4 °F 20.4 °F 28.4 °F 100% 30.11 in 4.0 mi NW 8.1 mph - N/A   Overcast
9:35 AM 30.2 °F 22.6 °F 28.4 °F 93% 30.11 in 7.0 mi NW 8.1 mph - N/A   Overcast
9:55 AM 30.2 °F 22.6 °F 28.4 °F 93% 30.12 in 3.0 mi WNW 8.1 mph - N/A   Overcast
10:15 AM 30.2 °F 22.6 °F 28.4 °F 93% 30.12 in 4.0 mi NW 8.1 mph - N/A   Overcast
10:35 AM 30.2 °F 23.4 °F 28.4 °F 93% 30.13 in 4.0 mi WNW 6.9 mph - N/A   Overcast
10:55 AM 30.2 °F 22.6 °F 28.4 °F 93% 30.13 in 4.0 mi NW 8.1 mph - N/A   Overcast
11:15 AM 30.2 °F 23.4 °F 28.4 °F 93% 30.14 in 10.0 mi NW 6.9 mph - N/A   Overcast
11:35 AM 30.2 °F 23.4 °F 28.4 °F 93% 30.15 in 10.0 mi WNW 6.9 mph - N/A   Overcast
11:55 AM 32.0 °F 25.6 °F 28.4 °F 87% 30.15 in 9.0 mi WNW 6.9 mph - N/A   Overcast
12:15 PM 32.0 °F 25.6 °F 28.4 °F 87% 30.15 in 10.0 mi WNW 6.9 mph - N/A   Overcast
12:35 PM 32.0 °F 24.8 °F 28.4 °F 87% 30.15 in 10.0 mi West 8.1 mph - N/A   Overcast
12:55 PM 32.0 °F 25.6 °F 28.4 °F 87% 30.15 in 10.0 mi West 6.9 mph - N/A   Overcast
1:15 PM 33.8 °F 27.0 °F 28.4 °F 81% 30.15 in 10.0 mi West 8.1 mph - N/A   Overcast
1:35 PM 33.8 °F 27.7 °F 30.2 °F 87% 30.15 in 10.0 mi NW 6.9 mph - N/A   Overcast
1:55 PM 32.0 °F 25.6 °F 28.4 °F 87% 30.15 in 10.0 mi West 6.9 mph - N/A   Overcast
2:15 PM 33.8 °F 27.7 °F 28.4 °F 81% 30.15 in 10.0 mi WNW 6.9 mph - N/A   Overcast
2:35 PM 33.8 °F 27.7 °F 28.4 °F 81% 30.15 in 10.0 mi WNW 6.9 mph - N/A   Overcast
2:55 PM 33.8 °F 26.4 °F 28.4 °F 81% 30.15 in 10.0 mi WNW 9.2 mph - N/A   Overcast
3:15 PM 33.8 °F 27.7 °F 28.4 °F 81% 30.15 in 10.0 mi WNW 6.9 mph - N/A   Overcast
3:35 PM 33.8 °F 26.4 °F 28.4 °F 81% 30.15 in 10.0 mi West 9.2 mph - N/A   Overcast
3:55 PM 33.8 °F 25.8 °F 28.4 °F 81% 30.15 in 10.0 mi WNW 10.4 mph - N/A   Overcast
4:15 PM 33.8 °F 26.4 °F 28.4 °F 81% 30.15 in 10.0 mi West 9.2 mph - N/A   Overcast
4:35 PM 33.8 °F 26.4 °F 28.4 °F 81% 30.16 in 10.0 mi WNW 9.2 mph - N/A   Overcast
4:55 PM 33.8 °F 26.4 °F 28.4 °F 81% 30.16 in 10.0 mi West 9.2 mph - N/A   Overcast
5:15 PM 33.8 °F 25.3 °F 28.4 °F 81% 30.16 in 10.0 mi West 11.5 mph - N/A   Overcast
5:35 PM 33.8 °F 25.8 °F 28.4 °F 81% 30.17 in 6.0 mi West 10.4 mph - N/A   Overcast
5:55 PM 32.0 °F 23.6 °F 28.4 °F 87% 30.17 in 8.0 mi West 10.4 mph - N/A   Overcast
6:15 PM 32.0 °F 23.6 °F 28.4 °F 87% 30.17 in 9.0 mi West 10.4 mph - N/A   Overcast
6:35 PM 32.0 °F 26.4 °F 28.4 °F 87% 30.17 in 10.0 mi West 5.8 mph - N/A   Overcast
6:55 PM 32.0 °F 25.6 °F 28.4 °F 87% 30.18 in 10.0 mi West 6.9 mph - N/A   Overcast
7:15 PM 32.0 °F 24.8 °F 28.4 °F 87% 30.19 in 9.0 mi West 8.1 mph - N/A   Overcast
7:35 PM 32.0 °F 25.6 °F 28.4 °F 87% 30.19 in 10.0 mi West 6.9 mph - N/A   Mostly Cloudy
7:55 PM 32.0 °F 24.8 °F 28.4 °F 87% 30.19 in 10.0 mi West 8.1 mph - N/A   Overcast
8:15 PM 32.0 °F 25.6 °F 28.4 °F 87% 30.20 in 10.0 mi WSW 6.9 mph - N/A   Overcast
8:35 PM 32.0 °F 24.2 °F 28.4 °F 87% 30.20 in 10.0 mi West 9.2 mph - N/A   Overcast
8:55 PM 32.0 °F 24.8 °F 28.4 °F 87% 30.20 in 10.0 mi West 8.1 mph - N/A   Overcast
9:15 PM 32.0 °F 23.6 °F 28.4 °F 87% 30.20 in 10.0 mi West 10.4 mph - N/A   Overcast
9:35 PM 32.0 °F 23.0 °F 28.4 °F 87% 30.20 in 10.0 mi West 11.5 mph - N/A   Overcast
9:55 PM 32.0 °F 25.6 °F 28.4 °F 87% 30.21 in 10.0 mi West 6.9 mph - N/A   Overcast
10:15 PM 32.0 °F 25.6 °F 28.4 °F 87% 30.21 in 10.0 mi West 6.9 mph - N/A   Overcast
10:35 PM 32.0 °F 26.4 °F 28.4 °F 87% 30.21 in 10.0 mi West 5.8 mph - N/A   Overcast
10:55 PM 32.0 °F 26.4 °F 28.4 °F 87% 30.21 in 10.0 mi West 5.8 mph - N/A   Overcast
11:15 PM 32.0 °F - 28.4 °F 87% 30.21 in 10.0 mi Calm Calm - N/A   Overcast
11:35 PM 32.0 °F 26.4 °F 26.6 °F 80% 30.21 in 10.0 mi West 5.8 mph - N/A   Overcast
11:55 PM 32.0 °F 27.5 °F 28.4 °F 87% 30.21 in 10.0 mi West 4.6 mph - N/A   Overcast